Anchorage Merrill, AK

1:28 AM AKDT on March 30, 2017 (GMT -0800)
Merrill

Weather History for PAMR - April, 2012

Change the Weather History Date:

Wednesday, April 18, 2012

  Actual Average Record
Temperature  
Mean Temperature 42 °F -  
Max Temperature 50 °F 45 °F 55 °F (2015)
Min Temperature 37 °F 28 °F 18 °F (2013)
Degree Days  
Heating Degree Days 22    
Moisture  
Dew Point 32 °F    
Average Humidity 67    
Maximum Humidity 83    
Minimum Humidity 52    
Precipitation  
Precipitation 0.00 in - - ()
Snow  
Snow 0.00 in - - ()
Snow Depth 2.00 in    
Sea Level Pressure  
Sea Level Pressure 29.79 in    
Wind  
Wind Speed 2 mph (WNW)    
Max Wind Speed 9 mph    
Max Gust Speed -    
Visibility 10 miles    
Events      
Averages and records for this station are not official NWS values.
T = Trace of Precipitation, MM = Missing Value Source: NWS Daily Summary

Daily Weather History Graph

Daily Weather History Graph

Search for Another Location

Airport or City:

Trip Planner

Search our weather history database for the weather conditions in past years. The results will help you decide how hot, cold, wet, or windy it might be!

Date:

Astronomy

Apr. 18, 2012 Rise Set
Actual Time 6:27 AM AKDT 9:31 PM AKDT
Civil Twilight 5:37 AM AKDT 10:21 PM AKDT
Nautical Twilight 4:27 AM AKDT 11:33 PM AKDT
Astronomical Twilight 2:31 AM AKDT 1:26 AM AKDT
Moon 5:30 AM AKDT (4/18) 7:08 PM AKDT (4/18)
Length of Visible Light 16h 44m
Length of Day
15h 04m
Waning Crescent, 6% of the Moon is Illuminated
Apr 18
Waning Crescent
Apr 20
New
Apr 29
First Quarter
May 5
Full
May 12
Last Quarter

Hourly Weather History & Observations

Time (AKDT) Temp. Windchill Dew Point Humidity Pressure Visibility Wind Dir Wind Speed Gust Speed Precip Events Conditions
12:53 AM 39.0 °F - 33.1 °F 79% 29.81 in 10.0 mi Calm Calm - N/A   Overcast
1:53 AM 39.0 °F - 33.1 °F 79% 29.81 in 10.0 mi Calm Calm - N/A   Overcast
2:53 AM 39.0 °F - 32.0 °F 76% 29.81 in 10.0 mi Calm Calm - N/A   Overcast
3:53 AM 39.0 °F 35.7 °F 32.0 °F 76% 29.82 in 10.0 mi NE 4.6 mph - N/A   Overcast
4:53 AM 39.0 °F - 32.0 °F 76% 29.82 in 10.0 mi Calm Calm - N/A   Overcast
5:53 AM 37.9 °F 33.5 °F 33.1 °F 83% 29.83 in 10.0 mi SW 5.8 mph - N/A   Overcast
6:53 AM 37.9 °F - 32.0 °F 79% 29.83 in 10.0 mi Calm Calm - N/A   Mostly Cloudy
7:53 AM 37.9 °F 35.5 °F 33.1 °F 83% 29.82 in 10.0 mi SSE 3.5 mph - N/A   Mostly Cloudy
8:53 AM 41.0 °F - 34.0 °F 76% 29.81 in 10.0 mi Calm Calm - N/A   Overcast
9:53 AM 42.1 °F - 33.1 °F 70% 29.81 in 10.0 mi Calm Calm - N/A   Overcast
10:53 AM 43.0 °F 41.3 °F 33.1 °F 68% 29.81 in 10.0 mi NNW 3.5 mph - N/A   Mostly Cloudy
11:53 AM 46.0 °F 43.9 °F 30.9 °F 56% 29.80 in 10.0 mi NNW 4.6 mph - N/A   Scattered Clouds
12:53 PM 46.9 °F - 33.1 °F 59% 29.80 in 10.0 mi WNW 4.6 mph - N/A   Scattered Clouds
1:53 PM 46.9 °F - 34.0 °F 61% 29.79 in 10.0 mi WNW 6.9 mph - N/A   Scattered Clouds
2:53 PM 48.9 °F - 33.1 °F 54% 29.78 in 10.0 mi WNW 8.1 mph - N/A   Scattered Clouds
3:53 PM 48.9 °F - 33.1 °F 54% 29.76 in 10.0 mi West 9.2 mph - N/A   Scattered Clouds
4:53 PM 48.9 °F - 35.1 °F 59% 29.75 in 10.0 mi West 6.9 mph - N/A   Scattered Clouds
5:53 PM 48.0 °F - 30.9 °F 52% 29.75 in 10.0 mi WNW 8.1 mph - N/A   Partly Cloudy
6:53 PM 48.9 °F - 32.0 °F 52% 29.74 in 10.0 mi West 4.6 mph - N/A   Partly Cloudy
7:53 PM 46.9 °F - 30.0 °F 52% 29.74 in 10.0 mi West 3.5 mph - N/A   Partly Cloudy
8:53 PM 43.0 °F 41.3 °F 30.9 °F 62% 29.74 in 10.0 mi WSW 3.5 mph - N/A   Partly Cloudy
9:53 PM 43.0 °F - 30.9 °F 62% 29.74 in 10.0 mi Calm Calm - N/A   Scattered Clouds
10:53 PM 39.0 °F - 30.9 °F 73% 29.75 in 10.0 mi Calm Calm - N/A   Scattered Clouds
11:53 PM 39.9 °F - 30.9 °F 70% 29.75 in 10.0 mi Calm Calm - N/A   Scattered Clouds